{"data":{"norad_id":62820,"intl_designator":"2025-018Q","name":"STARLINK-32844","alt_names":[],"object_type":"PAYLOAD","status":"ACTIVE","operator":null,"country":"US","launch_date":"2025-01-24","launch_site_code":"AFWTR","launch_vehicle":null,"mission":null,"orbit_class":"UNKNOWN","rcs_meters":null,"size_class":null,"mass_kg":null,"dimensions":null,"purposes":["comms"],"wikipedia_slug":null,"has_3d_model":false,"image_url":null,"decayed_at":null,"tle_current":{"epoch":"2026-09-21T20:26:16.363392Z","epoch_age_seconds":51456,"freshness":"FRESH","line1":"1 62820U 25018Q   26264.85157828  .00008071  00000+0  27144-3 0  9994","line2":"2 62820  53.1598 116.8802 0001439 100.9423 259.1741 15.31715392 93225","mean_motion":15.31715392,"eccentricity":0.0001439,"inclination_deg":53.1598,"raan_deg":116.8802,"arg_perigee_deg":100.9423,"mean_anomaly_deg":259.1741,"bstar":0.00027144,"rev_number":9322,"period_min":94.012243235328,"perigee_km":469.70856606167,"apogee_km":471.67965965595,"semimajor_km":6848.8311128588,"source":"CELESTRAK","updated_at":"2026-09-22T09:00:49.669418Z"}}}